Theta_e
307 308 309 309 309 309 308 309 309 308 309 310 311 311 312 308 307 306 303 304 300 293 295 297 297 295 294 292 287 293 293 294 292 290 290 292 291 293 291 293 292 290 288 288 290 285 283 299 298 291 296 299 297 296
306 306 306 307 308 308 308 308 308 308 308 309 310 310 311 310 307 306 300 304 303 295 295 302 302 301 299 298 293 293 292 291 292 289 294 293 291 293 291 288 297 289 295 290 292 293 300 302 300 301 300 296 296 296
304 304 305 306 306 306 307 307 307 308 308 309 309 309 311 311 308 306 302 301 298 294 295 296 299 303 306 302 301 290 294 297 295 296 293 294 290 295 290 291 293 295 298 294 293 296 298 300 301 301 299 297 298 297
303 303 303 304 305 305 305 305 306 307 308 309 309 310 310 311 308 306 300 302 299 295 289 296 303 301 305 305 303 301 299 298 298 296 294 294 292 296 293 294 294 295 297 293 294 297 298 299 300 299 298 298 298 297
302 302 302 303 303 303 303 304 305 306 307 308 309 310 310 311 308 305 302 301 302 295 290 292 300 302 304 303 301 298 296 295 294 292 294 293 296 295 297 295 293 298 294 293 290 298 296 297 299 298 296 296 298 296
302 302 302 302 302 303 303 303 304 305 307 308 309 310 310 309 305 301 295 300 302 300 291 287 300 298 299 301 298 297 296 296 294 292 295 298 298 297 293 291 295 298 296 298 296 300 298 298 299 299 298 298 298 297
302 302 302 302 302 302 302 303 303 304 306 308 309 310 308 305 304 298 295 303 303 302 293 287 290 297 298 298 297 296 298 296 297 294 293 295 297 297 295 289 297 297 299 299 300 298 296 298 296 299 299 299 299 298
303 302 302 302 302 302 302 302 302 303 305 308 309 307 305 303 302 298 302 303 304 296 294 286 287 293 298 293 293 299 296 297 297 295 296 296 300 298 293 296 296 297 299 298 298 299 298 299 299 297 299 299 297 295
303 303 302 302 302 302 302 302 302 303 305 307 307 304 302 299 296 297 304 304 302 296 288 287 285 289 296 295 298 298 299 291 297 290 296 298 294 291 294 296 295 297 297 296 297 298 297 295 295 296 297 297 295 294
303 302 302 302 302 303 303 302 302 303 306 305 302 296 291 296 303 304 299 292 291 292 291 287 293 289 293 291 294 291 294 291 290 294 301 295 294 297 298 297 299 297 296 296 294 292 293 293 294 295 296 295 295 295
303 303 302 303 303 304 304 303 302 305 303 299 295 292 299 303 299 294 289 288 288 286 289 289 290 289 297 290 288 294 290 294 288 292 291 291 291 294 297 296 298 297 297 296 295 295 295 296 295 295 294 295 294 295
303 303 303 303 303 304 304 303 303 302 299 298 298 301 299 294 291 287 286 289 286 286 291 289 290 291 293 296 290 290 291 293 285 296 291 288 292 295 296 296 296 296 296 295 295 294 294 294 296 296 295 294 294 295
303 302 302 303 303 304 304 303 304 303 302 300 294 291 292 290 284 283 283 286 287 291 291 290 288 291 290 292 291 293 289 289 297 291 288 292 295 294 297 297 295 297 296 295 294 295 293 294 296 296 295 295 294 294
302 302 302 302 303 304 304 303 304 302 299 290 289 284 286 284 287 288 290 292 295 294 292 291 289 289 293 291 294 289 293 293 288 286 287 292 295 296 296 296 296 294 295 294 294 293 292 292 294 295 296 295 294 292
301 301 301 301 302 304 304 304 303 302 296 290 290 285 286 293 294 295 295 295 296 296 294 294 295 295 292 291 294 293 288 286 290 290 293 295 297 296 296 296 296 294 294 294 294 292 292 292 292 292 294 296 295 293
301 300 302 303 304 304 304 303 300 299 295 291 290 288 292 291 291 293 294 294 297 296 297 296 292 291 291 293 290 288 287 286 292 296 295 298 297 297 297 296 295 294 294 294 294 293 293 292 291 292 293 293 294 294
300 299 304 303 303 304 302 298 297 292 290 290 288 293 293 292 293 294 296 296 299 294 291 294 288 288 295 290 289 295 291 295 297 297 298 298 298 297 297 295 294 293 294 294 294 293 292 292 292 291 290 292 293 293
299 303 304 304 302 299 297 297 293 290 288 291 289 293 294 295 295 296 297 297 295 295 295 291 296 290 289 287 291 295 296 298 298 297 298 299 298 297 296 294 293 293 293 293 293 292 292 291 291 290 291 292 292 292
301 303 303 301 300 296 292 292 293 288 290 292 293 295 296 295 297 298 298 298 298 300 298 295 291 291 293 298 297 297 297 296 295 296 297 299 298 296 295 294 294 293 293 293 293 292 292 292 291 291 291 290 290 290
301 302 302 301 300 294 290 291 295 291 290 294 296 296 296 297 297 297 297 297 296 296 293 291 293 296 298 300 302 299 298 298 297 294 295 296 296 296 294 294 293 294 293 293 292 289 292 292 292 291 290 290 290 289
300 300 301 301 298 297 294 292 291 293 294 293 296 296 294 297 294 294 294 296 293 294 293 296 297 301 301 303 302 300 298 298 296 296 294 293 295 295 294 294 295 294 293 293 292 291 291 291 291 292 291 291 290 291
299 300 298 299 294 294 292 297 295 296 293 292 292 295 293 292 293 294 296 291 290 296 297 298 298 301 299 299 299 300 299 299 299 296 293 293 293 293 293 293 294 292 292 293 293 292 291 291 290 291 291 290 290 291
300 299 296 295 291 289 289 299 292 293 288 291 294 290 290 292 294 296 290 292 296 300 300 300 300 301 301 301 300 300 300 299 297 296 295 295 294 294 294 293 294 293 292 292 293 292 291 286 290 290 290 290 289 289
299 293 290 290 290 288 293 290 293 290 292 289 288 288 291 291 294 290 289 291 297 299 298 298 298 298 299 300 298 298 298 299 297 296 296 294 293 293 293 292 292 293 293 293 293 292 292 291 287 289 288 287 286 287
288 288 289 285 290 287 286 287 287 288 286 288 288 289 290 292 287 289 290 293 296 297 298 298 298 299 297 297 298 297 299 297 295 293 294 295 293 293 292 292 292 292 294 292 291 290 290 289 288 287 286 285 284 285
285 287 286 287 287 287 286 284 285 285 286 286 289 292 291 290 287 287 292 295 296 298 298 297 298 296 296 297 295 295 295 298 296 293 294 295 295 293 291 290 290 290 292 292 290 288 287 286 286 285 285 284 282 284
283 285 290 294 292 290 288 290 291 289 286 287 291 290 288 286 286 292 298 300 299 300 301 301 299 296 295 295 295 296 297 298 297 295 295 295 294 295 294 292 289 290 291 289 288 286 285 285 284 284 284 284 284 283
290 290 286 289 290 292 289 290 289 288 290 294 291 288 287 288 288 292 296 298 300 300 300 299 299 298 296 295 295 295 294 295 294 294 293 293 294 293 292 291 290 283 286 285 286 285 285 284 284 283 283 283 283 284
288 292 291 287 289 291 291 290 291 295 297 294 290 289 289 291 291 294 296 297 298 296 295 294 294 295 294 295 295 295 295 294 292 289 289 288 289 290 292 291 290 289 288 285 277 281 281 282 282 282 283 283 283 284
290 294 289 288 287 287 292 296 294 297 296 295 293 291 292 293 294 295 297 296 296 296 296 295 294 294 293 293 292 293 295 296 296 294 292 291 291 291 291 290 289 287 287 285 285 284 280 283 282 284 282 282 282 282
293 293 290 289 288 290 292 295 294 293 292 290 292 291 291 292 294 295 294 296 295 295 294 293 294 295 294 293 292 291 290 294 295 295 295 293 292 291 290 289 287 286 285 284 283 282 282 282 281 280 279 279 279 279
291 289 288 285 286 290 291 290 288 287 287 289 288 290 291 291 288 292 293 295 294 293 289 293 293 293 295 296 295 295 289 293 293 292 292 292 290 289 288 286 285 285 284 283 282 281 280 279 279 278 277 276 277 277
288 288 289 288 286 286 288 289 288 287 288 287 288 289 289 289 286 292 294 296 296 294 294 294 293 293 293 293 293 292 290 292 286 283 284 284 284 285 286 285 284 283 282 282 281 280 278 277 276 275 274 274 274 274
Wind_Speed
13 10 10 10 7 6 7 7 8 10 9 9 8 8 7 16 15 6 1 5 2 3 5 6 6 8 5 4 3 4 7 3 2 4 3 2 2 0 3 1 1 4 5 3 3 4 5 7 13 9 14 18 21 23
9 8 8 7 7 8 7 7 7 8 8 8 9 9 9 17 16 9 2 2 2 2 4 6 13 14 14 14 3 3 4 1 2 3 2 1 2 3 2 2 3 3 2 2 3 4 5 9 11 14 12 19 20 20
10 9 8 9 7 7 6 6 6 9 10 10 11 10 11 15 19 13 3 4 2 2 6 6 5 7 9 9 11 4 4 4 3 2 3 2 3 2 2 3 2 3 1 4 5 2 9 13 9 15 17 19 20 18
10 10 9 9 7 6 6 6 7 10 10 10 10 10 10 10 20 12 3 4 1 0 3 1 3 7 8 6 12 17 2 1 1 3 3 4 3 1 2 3 6 1 4 5 9 10 14 2 17 19 21 21 22 19
10 11 10 10 9 8 9 8 9 9 9 11 9 10 9 9 19 7 2 3 1 2 3 6 16 6 3 7 11 10 7 5 1 2 4 2 1 4 4 5 6 3 5 3 4 13 11 17 19 19 19 21 20 22
11 12 11 10 10 10 9 9 9 10 11 11 10 9 7 17 16 3 2 3 3 1 1 4 5 4 4 5 10 10 8 5 2 2 4 2 1 5 3 3 4 5 3 4 8 14 13 16 14 18 20 21 21 20
12 12 11 11 11 9 9 9 9 10 11 12 8 5 20 19 4 2 1 3 10 4 2 4 4 4 0 4 3 2 5 3 4 0 3 4 3 4 3 1 7 4 3 6 8 9 13 12 16 18 18 19 20 21
13 12 12 11 11 10 10 9 9 10 11 10 5 19 19 14 8 2 2 10 7 2 2 3 4 4 4 3 4 6 5 5 6 2 4 5 3 4 3 5 3 3 6 6 7 10 13 14 16 16 16 17 20 21
12 12 12 11 11 10 9 9 9 10 12 4 20 20 5 1 2 1 10 10 1 1 2 3 3 2 1 3 2 4 3 3 2 3 4 3 4 3 2 5 0 4 7 10 11 11 12 13 15 16 17 18 19 20
12 11 12 11 10 11 10 8 8 13 18 22 4 2 2 2 7 10 5 2 2 2 2 4 3 3 1 1 4 3 2 3 4 5 3 3 1 6 6 4 2 6 6 8 10 12 14 15 15 16 16 15 16 18
12 12 12 12 12 12 12 9 6 13 8 1 3 2 3 8 3 2 2 3 3 3 4 4 6 4 3 2 1 2 2 4 3 3 2 2 2 4 5 2 3 5 5 5 7 9 11 11 12 13 14 15 16 18
11 11 11 10 11 9 6 7 7 6 2 4 5 5 2 2 2 3 4 4 5 4 5 3 3 3 2 1 1 2 2 4 2 5 3 2 4 6 3 2 3 4 4 6 8 10 12 12 11 12 13 14 15 17
8 7 8 8 8 6 7 7 15 16 10 3 2 4 3 3 5 6 7 5 4 3 2 3 3 2 2 4 4 4 5 2 4 4 2 2 7 6 4 3 4 3 4 6 9 11 12 12 11 12 13 13 14 15
7 7 8 9 9 7 8 9 20 9 3 2 4 6 5 5 6 5 3 1 3 1 3 4 3 4 5 5 3 4 2 3 4 4 3 5 7 7 6 4 3 5 5 7 9 11 13 12 11 12 12 12 12 14
8 8 9 11 12 9 9 15 18 1 2 3 3 4 6 4 0 2 3 3 2 2 2 2 3 3 4 4 4 2 5 5 2 3 4 7 8 7 6 4 5 5 6 7 8 9 11 12 12 13 13 12 13 13
5 7 7 11 8 10 13 14 3 1 1 2 3 3 1 1 5 7 5 4 3 1 2 3 2 2 3 2 5 4 1 1 3 4 6 8 9 7 6 5 6 6 7 7 8 9 10 11 12 12 12 13 13 13
4 3 1 9 9 16 15 4 2 3 4 4 3 4 4 3 2 1 2 1 4 2 3 3 4 1 0 3 3 1 1 4 6 7 6 9 9 8 7 6 6 6 6 7 7 8 9 9 10 11 13 13 13 13
3 3 2 12 11 7 2 1 2 3 4 4 4 4 6 4 3 2 3 2 2 3 2 0 1 3 3 2 3 4 5 5 7 8 8 8 8 8 6 7 5 6 6 6 7 7 10 10 10 9 11 12 10 12
3 4 16 18 7 4 3 2 2 3 5 2 5 5 3 3 4 3 3 3 3 3 2 2 3 2 2 0 2 6 7 7 9 9 9 9 9 8 8 6 6 5 6 6 7 6 6 8 8 8 9 9 9 10
8 6 14 8 4 3 3 2 2 3 3 2 3 4 3 3 3 4 4 3 3 3 4 4 3 2 2 4 2 7 8 9 10 9 9 8 7 7 6 5 4 4 4 5 6 7 6 6 6 7 7 8 9 10
4 8 8 1 2 2 1 3 3 3 2 3 1 3 2 3 3 3 2 3 2 3 3 3 4 1 4 3 6 8 10 10 9 8 9 8 6 6 5 5 4 4 4 4 5 5 3 7 7 7 8 8 8 7
3 4 2 2 1 4 2 3 1 2 3 2 1 3 2 3 3 4 5 2 2 5 3 3 3 2 5 9 9 10 11 10 9 9 10 8 7 5 5 4 3 4 4 4 4 5 5 6 7 7 7 8 7 8
7 3 2 2 1 1 1 3 4 4 3 2 2 2 2 2 1 4 2 2 4 5 4 3 3 2 8 11 11 12 11 11 9 9 8 7 7 6 5 4 3 3 4 4 4 4 5 3 5 7 8 8 9 9
3 2 3 3 3 3 3 4 2 2 2 2 2 2 2 1 4 2 2 3 3 6 6 6 6 7 7 10 9 9 8 7 9 8 8 8 7 6 5 5 5 4 4 3 4 4 5 6 5 7 9 10 11 10
3 4 4 3 3 4 5 5 4 3 4 5 3 3 2 2 2 3 3 3 5 7 7 6 6 7 8 7 7 8 7 8 9 9 7 6 7 6 6 5 5 5 4 4 5 5 6 6 7 8 8 10 13 12
2 4 5 7 5 5 4 4 6 5 3 3 5 3 2 2 3 3 3 5 5 7 6 7 7 6 7 8 10 8 7 8 9 9 8 6 5 5 6 6 6 6 5 5 6 7 7 7 8 10 9 9 7 12
4 5 4 3 3 4 3 3 4 4 5 4 2 4 3 3 3 2 3 2 4 5 4 5 6 7 8 9 9 8 7 7 8 9 7 6 6 5 4 5 7 6 5 6 6 7 7 7 8 8 9 9 10 11
2 5 6 7 4 5 4 5 5 5 4 5 3 4 3 1 3 2 4 3 1 4 6 6 6 8 9 10 9 10 10 11 12 11 9 8 7 7 9 8 8 9 8 8 7 7 7 7 8 8 9 10 10 10
4 4 5 7 3 4 4 4 2 1 2 3 3 2 2 2 2 2 3 2 4 7 8 9 9 9 10 9 9 9 9 10 12 14 12 9 8 6 5 5 5 4 4 8 8 8 8 8 8 8 8 8 9 9
5 6 4 7 4 6 2 3 0 3 4 4 4 2 2 2 3 3 1 3 5 6 7 8 10 10 11 11 11 9 6 4 4 5 6 7 8 7 6 5 5 5 4 5 5 6 3 2 2 5 8 8 8 8
6 5 3 3 2 2 1 4 3 3 3 3 4 2 4 4 3 4 4 2 4 6 8 9 9 9 10 11 11 11 8 5 7 8 9 9 8 7 6 6 5 5 5 6 6 6 6 6 7 8 9 10 11 11
4 4 4 4 2 2 3 2 2 1 2 1 2 1 2 2 3 2 3 2 5 7 5 8 10 10 9 8 7 7 9 9 9 10 12 9 9 8 7 6 6 5 6 6 6 6 7 7 7 8 8 10 11 12
2 2 2 3 3 3 2 2 2 2 2 2 2 2 1 1 3 3 3 2 1 5 7 8 9 9 10 10 11 10 10 11 14 14 14 12 10 7 7 6 6 6 7 6 6 7 7 8 7 7 7 8 9 10
Wind_Direction
312 299 283 273 264 265 262 260 263 268 272 279 263 273 260 188 185 189 103 188 197 224 273 256 250 238 245 230 244 16 298 177 245 236 239 215 246 206 260 354 280 216 190 203 274 256 259 16 328 337 328 314 314 318
308 317 313 303 285 269 265 260 268 278 280 273 265 266 271 188 188 170 195 151 154 242 281 309 278 276 258 256 254 204 304 355 289 291 270 323 251 202 273 225 192 241 241 261 222 278 330 329 317 330 326 318 319 321
297 298 301 292 276 281 285 280 283 282 282 270 263 262 265 196 185 180 141 133 162 267 262 244 256 189 204 225 208 203 221 209 214 353 305 296 272 295 235 244 230 178 239 244 290 249 315 318 311 333 337 321 323 320
287 288 287 288 279 283 283 284 296 288 283 285 268 258 260 221 181 166 152 161 201 78 280 10 141 218 263 226 202 204 213 73 318 302 254 248 242 273 293 320 260 78 192 270 274 294 337 348 334 335 328 323 321 316
282 282 283 283 285 284 285 288 286 284 284 289 276 261 255 235 172 139 119 183 195 241 297 301 298 253 209 204 186 212 214 231 272 275 245 254 337 249 218 287 265 163 285 275 280 340 320 312 326 327 319 323 323 323
280 279 275 274 277 274 275 278 279 294 291 292 281 265 237 136 121 107 236 168 170 184 279 285 20 257 11 262 185 190 199 200 232 221 273 240 256 260 253 226 196 108 183 267 303 316 314 308 325 315 322 327 324 324
273 274 271 270 271 270 274 278 288 290 292 296 275 217 140 139 129 159 204 90 155 186 231 273 272 129 124 142 167 154 168 200 222 253 261 280 218 211 261 242 117 152 282 296 309 322 317 326 321 324 327 325 327 330
259 262 264 265 265 263 265 271 276 286 295 303 243 139 131 109 109 139 103 136 136 140 231 266 272 211 172 185 172 190 179 196 196 200 228 242 184 230 264 110 75 297 320 319 331 323 310 320 321 328 329 331 337 337
256 257 260 260 262 262 262 262 277 282 295 183 126 113 100 103 158 150 164 160 77 285 249 227 267 56 69 243 179 165 152 190 140 200 233 221 193 225 58 113 132 341 343 329 325 321 334 334 334 339 335 346 340 340
249 247 253 257 259 257 254 255 280 294 139 123 104 129 149 191 138 139 154 148 172 201 226 247 238 255 261 273 173 124 208 193 201 210 168 220 239 85 92 85 354 349 351 341 339 348 344 342 342 338 349 343 342 341
247 241 245 253 262 260 252 239 259 152 113 127 112 97 75 127 173 186 186 217 174 227 209 226 244 241 178 256 265 288 197 208 214 146 218 232 178 131 145 101 17 356 2 357 355 347 348 339 341 342 345 345 345 343
244 235 241 252 267 263 225 199 181 153 114 117 105 100 127 198 185 214 210 170 214 246 171 222 181 192 256 194 233 234 222 213 209 137 230 208 111 127 131 66 47 23 18 1 2 355 356 354 353 348 352 352 350 345
230 234 247 260 271 258 211 187 176 129 121 70 88 154 177 146 206 227 195 185 208 206 178 176 178 162 191 227 221 217 217 158 143 203 199 68 118 158 136 127 93 37 22 5 5 2 5 3 4 0 3 1 356 353
231 246 255 261 264 269 196 175 160 147 102 140 177 161 217 174 233 195 233 214 54 253 172 188 159 201 188 188 229 218 75 162 219 209 158 132 160 126 130 117 85 39 23 16 9 8 12 11 6 8 6 4 4 2
235 257 266 263 256 241 192 172 156 176 127 182 194 214 208 245 25 240 236 234 163 278 254 239 187 170 189 215 213 179 182 226 239 71 98 131 126 134 126 103 70 43 31 29 21 14 11 13 13 16 13 7 15 8
234 278 237 217 211 183 158 128 84 67 117 228 224 237 188 224 230 224 218 235 172 246 241 228 195 244 207 200 200 205 255 204 100 88 125 133 131 126 115 95 71 48 36 33 27 18 14 12 13 12 15 12 14 12
244 242 279 186 173 150 128 86 116 175 205 215 220 230 249 319 244 205 245 274 138 201 224 189 194 171 5 243 161 162 58 82 126 121 129 122 130 123 108 98 80 57 41 34 30 23 21 19 20 20 17 11 15 10
245 301 247 138 126 94 67 81 136 177 213 216 231 196 197 229 256 180 143 120 181 203 233 111 93 171 222 187 134 126 127 112 112 123 124 120 119 112 109 103 85 60 47 35 32 38 33 19 22 18 10 3 10 12
293 300 150 137 112 100 130 149 206 213 222 214 223 239 217 240 259 235 190 162 233 258 199 213 260 214 213 14 67 122 136 137 134 131 122 121 119 109 106 99 85 69 57 44 35 34 31 30 15 9 5 3 4 12
251 181 142 116 72 121 133 141 243 254 209 215 237 213 227 234 190 192 196 172 172 214 201 201 224 174 342 28 83 136 135 139 140 140 133 127 120 118 107 104 90 106 86 70 75 16 21 23 22 8 11 3 355 5
91 113 100 53 76 55 112 161 182 215 245 240 194 220 230 203 204 188 170 152 205 234 197 201 182 80 49 87 119 123 135 147 150 143 135 134 132 120 120 111 87 64 57 46 32 61 10 20 1 2 357 6 352 9
96 126 93 35 169 170 203 208 324 132 215 173 267 260 230 204 202 181 143 168 220 229 217 177 133 93 125 132 129 133 134 130 112 103 101 120 129 123 109 98 98 86 65 43 28 22 23 9 7 348 2 353 348 5
112 62 97 154 149 137 175 200 211 196 218 189 188 187 232 218 148 131 193 222 230 196 177 155 119 123 120 122 122 132 139 140 136 127 146 114 105 107 107 92 80 88 90 67 22 17 12 3 19 351 3 0 356 359
103 112 161 158 187 161 176 196 200 239 225 181 255 226 166 163 147 200 225 200 204 160 150 140 155 139 141 146 148 143 150 131 125 123 126 134 128 118 100 93 86 70 45 40 24 15 16 13 348 10 11 6 1 3
139 154 170 161 198 170 194 173 185 206 242 213 205 204 153 146 185 218 212 162 168 178 172 191 182 179 146 132 134 127 140 145 137 132 135 126 120 128 122 106 87 56 13 27 33 17 17 14 16 11 20 18 7 1
135 160 199 183 166 198 182 195 185 204 206 220 200 166 150 186 216 213 162 163 174 169 165 179 156 134 136 136 134 136 135 126 134 131 132 139 148 144 143 151 132 88 36 28 18 15 24 19 23 12 14 23 28 1
159 178 188 211 174 173 190 226 175 180 194 214 178 139 179 216 193 109 111 70 146 170 198 167 158 139 130 115 107 116 122 132 127 122 115 95 76 61 74 88 88 74 49 34 35 26 22 24 23 18 12 18 20 11
230 167 178 179 187 202 228 188 201 209 185 135 163 186 210 242 82 19 44 27 25 163 125 112 111 119 122 124 124 122 116 114 118 116 109 99 93 89 88 85 82 65 67 30 24 38 29 28 23 22 16 14 12 11
204 189 150 179 169 210 214 225 243 258 70 125 164 130 89 54 38 342 24 68 136 143 141 123 112 118 120 122 124 128 139 146 150 155 148 137 139 120 115 112 105 79 75 102 74 42 41 38 30 17 20 18 11 5
180 173 175 178 183 208 185 173 249 42 40 77 97 110 123 97 49 326 8 142 158 154 136 137 142 145 140 135 128 124 126 140 166 155 156 148 123 129 123 110 93 82 74 67 58 87 177 229 90 35 25 27 23 7
149 168 138 170 204 130 51 103 78 67 68 52 22 107 110 123 109 64 27 57 116 135 143 148 147 147 143 146 143 139 130 115 108 109 107 115 124 119 111 100 94 85 73 64 56 42 39 46 36 34 25 26 25 17
147 171 158 155 151 104 66 65 103 75 71 103 108 103 129 127 100 83 21 308 140 146 135 145 141 139 140 130 111 96 102 121 122 121 124 118 115 115 111 102 92 85 83 75 60 53 52 48 46 37 28 23 19 16
107 104 99 123 138 153 158 139 107 105 96 101 106 99 68 69 123 107 109 342 222 142 132 114 113 113 115 112 111 110 104 91 78 73 71 73 75 89 107 103 101 100 94 83 74 69 62 57 53 42 34 21 15 12